Terminal Aerodrome Forecast
Issued by NWS Tiyan, Guam

Home | Current Version | Previous Version | Text Only | Print | Product List | Glossary On
Versions: 1 2 3 4 5 6 7 8 9 10 11 12 13 14 15 16 17 18 19 20 21 22 23 24 25 26 27 28 29 30 31 32 33 34 35 36 37 38 39 40
000
FTPQ31 PGUM 281100
TAFPQ
TAF
PGUM 281120Z 2812/2918 28011KT 6SM -RA SCT018 SCT040 BKN110
      TEMPO 2812/2814 35011G25KT 3SM SHRA SCT014 BKN030
     FM282000 30012KT P6SM VCSH SCT015 SCT040 BKN110=

USA.gov is the U.S. government's official web portal to all federal, state and local government web resources and services.